KK5DC Weather Reports


Display with metric or nautical units.
time (UTC)temp
F
wind
direction
speed
MPH
gust
MPH
rain 1hr
in
rain 24hr
in
rain mn
in
humidity
%
barometer
mb
20260906032009 82 83 0.0 5.0 0.00 0.00 0.00 73 1013.3
20260906031542 83 188 0.0 6.0 0.00 0.00 0.00 73 1014.0
20260906031525 83 79 1.0 6.0 0.00 0.00 0.00 73 1013.3
20260906031006 83 205 1.0 5.0 0.00 0.00 0.00 73 1014.0
20260906031003 83 128 1.0 5.0 0.00 0.00 0.00 73 1013.3
20260906030507 83 158 1.0 5.0 0.00 0.00 0.00 72 1013.2
20260906030504 83 217 1.0 5.0 0.00 0.00 0.00 72 1014.0
20260906030017 83 97 1.0 5.0 0.00 0.00 0.00 72 1013.2
20260906030013 83 169 1.0 5.0 0.00 0.00 0.00 72 1013.9
20260906025508 83 105 1.0 5.0 0.00 0.00 0.00 72 1013.9
20260906025506 83 92 1.0 6.0 0.00 0.00 0.00 72 1013.3
20260906025008 83 110 2.0 6.0 0.00 0.00 0.00 72 1013.2
20260906025004 83 176 1.0 6.0 0.00 0.00 0.00 72 1013.8
20260906024525 83 284 0.0 6.0 0.00 0.00 0.00 71 1013.8
20260906024015 83 142 1.0 4.0 0.00 0.00 0.00 70 1013.8
20260906024010 83 75 2.0 7.0 0.00 0.00 0.00 70 1012.9
20260906023516 83 79 2.0 5.0 0.00 0.00 0.00 69 1012.8
20260906023511 83 129 1.0 4.0 0.00 0.00 0.00 69 1013.6
20260906023024 84 130 0.0 6.0 0.00 0.00 0.00 68 1012.7
20260906023019 84 105 0.0 3.0 0.00 0.00 0.00 68 1013.5
20260906022513 84 138 1.0 6.0 0.00 0.00 0.00 68 1012.5
20260906022014 84 127 1.0 4.0 0.00 0.00 0.00 66 1013.2
20260906022012 84 98 1.0 4.0 0.00 0.00 0.00 66 1012.4
20260906021516 84 84 1.0 7.0 0.00 0.00 0.00 65 1013.3
20260906021009 85 134 1.0 7.0 0.00 0.00 0.00 65 1013.1
20260906020515 85 168 1.0 8.0 0.00 0.00 0.00 64 1012.9
20260906020511 85 103 2.0 10.0 0.00 0.00 0.00 64 1012.0
20260906020014 85 97 1.0 8.0 0.00 0.00 0.00 64 1012.7
20260906020012 85 71 2.0 10.0 0.00 0.00 0.00 64 1011.9
20260906015511 85 94 0.0 4.0 0.00 0.00 0.00 63 1012.6
20260906015508 85 103 2.0 7.0 0.00 0.00 0.00 63 1011.8
20260906015008 86 30 2.0 9.0 0.00 0.00 0.00 63 1011.8
20260906015006 86 226 1.0 6.0 0.00 0.00 0.00 63 1012.7
20260906014524 86 62 1.0 9.0 0.00 0.00 0.00 62 1011.9
20260906014519 86 101 2.0 7.0 0.00 0.00 0.00 62 1012.7
20260906014009 86 303 1.0 8.0 0.00 0.00 0.00 61 1011.9
20260906014007 86 217 2.0 8.0 0.00 0.00 0.00 61 1012.7
20260906013511 87 60 2.0 8.0 0.00 0.00 0.00 60 1011.8
20260906013033 87 96 2.0 8.0 0.00 0.00 0.00 59 1011.7
20260906013024 87 86 1.0 8.0 0.00 0.00 0.00 59 1012.4
20260906012513 88 15 1.0 8.0 0.00 0.00 0.00 57 1011.6
20260906012511 88 115 1.0 8.0 0.00 0.00 0.00 57 1012.4
20260906012010 88 77 2.0 7.0 0.00 0.00 0.00 57 1011.6
20260906012008 88 206 1.0 9.0 0.00 0.00 0.00 57 1012.4
20260906011527 89 276 2.0 10.0 0.00 0.00 0.00 56 1011.6
20260906011020 89 138 1.0 8.0 0.00 0.00 0.00 56 1012.3
20260906011011 89 53 2.0 10.0 0.00 0.00 0.00 56 1011.5
20260906010508 89 109 2.0 8.0 0.00 0.00 0.00 56 1011.5
20260906010027 90 21 1.0 4.0 0.00 0.00 0.00 56 1012.2
20260906005513 90 100 1.0 4.0 0.00 0.00 0.00 55 1011.4
20260906005008 90 100 1.0 4.0 0.00 0.00 0.00 55 1011.4
20260906004517 91 82 2.0 5.0 0.00 0.00 0.00 54 1011.4
20260906004010 91 134 1.0 5.0 0.00 0.00 0.00 54 1012.2
20260906003510 91 80 1.0 6.0 0.00 0.00 0.00 53 1011.4
20260906003508 91 140 1.0 4.0 0.00 0.00 0.00 53 1012.2
20260906003022 91 168 1.0 6.0 0.00 0.00 0.00 53 1012.2
20260906003014 91 71 1.0 6.0 0.00 0.00 0.00 53 1011.4
20260906002510 92 101 2.0 8.0 0.00 0.00 0.00 53 1011.4
20260906002016 92 76 1.0 8.0 0.00 0.00 0.00 52 1011.4
20260906002013 92 44 2.0 8.0 0.00 0.00 0.00 52 1012.2
20260906001533 92 156 1.0 10.0 0.00 0.00 0.00 52 1012.1
20260906001526 92 98 2.0 10.0 0.00 0.00 0.00 52 1011.4
20260906001009 92 171 3.0 10.0 0.00 0.00 0.00 51 1012.2
20260906001007 92 90 2.0 10.0 0.00 0.00 0.00 51 1011.4
20260906000514 92 103 2.0 9.0 0.00 0.00 0.00 51 1011.3
20260906000512 92 312 1.0 9.0 0.00 0.00 0.00 51 1012.2
20260906000030 93 119 2.0 10.0 0.00 0.00 0.00 51 1011.3
20260905235515 93 58 2.0 10.0 0.00 0.00 0.00 51 1011.3
20260905235505 93 150 3.0 11.0 0.00 0.00 0.00 51 1012.1
20260905235013 93 113 2.0 8.0 0.00 0.00 0.00 51 1011.3
20260905234530 93 331 2.0 8.0 0.00 0.00 0.00 51 1012.0
20260905234528 93 106 2.0 9.0 0.00 0.00 0.00 51 1011.3
20260905234013 94 53 2.0 8.0 0.00 0.00 0.00 50 1012.0
20260905234008 94 88 2.0 9.0 0.00 0.00 0.00 50 1011.3
20260905233510 94 112 2.0 8.0 0.00 0.00 0.00 51 1011.9
20260905233022 94 195 1.0 8.0 0.00 0.00 0.00 49 1011.8
20260905233012 94 78 3.0 9.0 0.00 0.00 0.00 49 1011.2
20260905232513 95 254 2.0 10.0 0.00 0.00 0.00 48 1011.9
20260905232505 95 87 2.0 10.0 0.00 0.00 0.00 48 1011.1
20260905232006 95 141 2.0 10.0 0.00 0.00 0.00 48 1011.8
20260905232003 95 19 3.0 10.0 0.00 0.00 0.00 48 1011.0
20260905231526 96 82 3.0 11.0 0.00 0.00 0.00 47 1011.8
20260905231504 96 92 3.0 11.0 0.00 0.00 0.00 47 1010.9
20260905231012 96 87 1.0 11.0 0.00 0.00 0.00 47 1011.7
20260905231006 96 61 4.0 11.0 0.00 0.00 0.00 47 1011.0
20260905230517 96 88 2.0 11.0 0.00 0.00 0.00 46 1011.7
20260905230503 96 327 1.0 7.0 0.00 0.00 0.00 46 1010.9
20260905230020 96 65 2.0 10.0 0.00 0.00 0.00 45 1011.7
20260905230008 96 360 2.0 10.0 0.00 0.00 0.00 45 1010.9
20260905225511 96 167 2.0 10.0 0.00 0.00 0.00 46 1011.7
20260905225502 96 133 3.0 12.0 0.00 0.00 0.00 46 1010.9
20260905225016 97 352 1.0 6.0 0.00 0.00 0.00 46 1011.7
20260905225003 97 25 2.0 12.0 0.00 0.00 0.00 46 1010.9
20260905224516 97 225 1.0 7.0 0.00 0.00 0.00 45 1011.7
20260905224511 97 105 4.0 12.0 0.00 0.00 0.00 45 1011.0
20260905224013 97 123 2.0 7.0 0.00 0.00 0.00 45 1011.7
20260905224007 97 61 2.0 7.0 0.00 0.00 0.00 45 1010.9
20260905223507 97 232 1.0 7.0 0.00 0.00 0.00 46 1011.6
20260905223504 97 165 1.0 7.0 0.00 0.00 0.00 46 1010.9
20260905223031 97 147 2.0 7.0 0.00 0.00 0.00 46 1011.8
20260905223015 97 15 3.0 7.0 0.00 0.00 0.00 46 1011.0
20260905222509 97 126 2.0 8.0 0.00 0.00 0.00 45 1011.7
20260905222018 97 9 2.0 8.0 0.00 0.00 0.00 45 1011.6
20260905222003 97 302 1.0 8.0 0.00 0.00 0.00 45 1010.8
20260905221537 97 161 1.0 6.0 0.00 0.00 0.00 45 1011.7
20260905221508 97 97 2.0 10.0 0.00 0.00 0.00 45 1010.8
20260905221008 97 335 2.0 7.0 0.00 0.00 0.00 44 1011.8
20260905221003 97 5 2.0 10.0 0.00 0.00 0.00 44 1011.0
20260905220511 98 47 2.0 7.0 0.00 0.00 0.00 44 1011.8
20260905220504 98 101 3.0 10.0 0.00 0.00 0.00 44 1011.0
20260905220029 98 53 2.0 6.0 0.00 0.00 0.00 44 1011.8
20260905220006 98 328 1.0 7.0 0.00 0.00 0.00 43 1011.0
20260905215517 99 58 2.0 6.0 0.00 0.00 0.00 45 1011.8
20260905215503 99 39 2.0 6.0 0.00 0.00 0.00 45 1011.0
20260905215009 98 26 1.0 4.0 0.00 0.00 0.00 44 1011.7
20260905215004 98 338 2.0 7.0 0.00 0.00 0.00 44 1011.0
20260905214528 99 176 1.0 4.0 0.00 0.00 0.00 43 1011.8
20260905214504 99 107 3.0 7.0 0.00 0.00 0.00 43 1011.1
20260905214015 98 257 1.0 9.0 0.00 0.00 0.00 43 1011.8
20260905214004 98 91 2.0 9.0 0.00 0.00 0.00 43 1011.1
20260905213519 98 182 1.0 9.0 0.00 0.00 0.00 45 1011.7
20260905213508 98 175 2.0 9.0 0.00 0.00 0.00 45 1011.0
20260905213022 98 11 1.0 7.0 0.00 0.00 0.00 43 1011.8
20260905213014 98 107 1.0 7.0 0.00 0.00 0.00 43 1011.0
20260905212508 99 152 2.0 4.0 0.00 0.00 0.00 43 1011.6
20260905212506 99 154 2.0 7.0 0.00 0.00 0.00 43 1010.9
20260905212005 98 181 1.0 4.0 0.00 0.00 0.00 43 1011.7
20260905211535 97 131 1.0 4.0 0.00 0.00 0.00 43 1011.8
20260905211530 97 74 3.0 6.0 0.00 0.00 0.00 43 1011.0
20260905211012 96 305 2.0 4.0 0.00 0.00 0.00 47 1011.8
20260905211004 96 14 1.0 4.0 0.00 0.00 0.00 47 1011.1
20260905210513 95 71 1.0 3.0 0.00 0.00 0.00 46 1011.9
20260905210503 95 103 2.0 4.0 0.00 0.00 0.00 46 1011.2
20260905210025 96 206 1.0 3.0 0.00 0.00 0.00 44 1012.0
20260905210008 96 174 1.0 4.0 0.00 0.00 0.00 44 1011.3
20260905205509 97 111 1.0 6.0 0.00 0.00 0.00 41 1012.2
20260905205503 97 69 1.0 6.0 0.00 0.00 0.00 41 1011.5
20260905205014 100 190 1.0 7.0 0.00 0.00 0.00 41 1012.3
20260905205004 100 325 2.0 6.0 0.00 0.00 0.00 41 1011.6
20260905204530 98 96 2.0 7.0 0.00 0.00 0.00 41 1012.3
20260905204507 98 79 1.0 6.0 0.00 0.00 0.00 41 1011.6
20260905204007 100 263 1.0 5.0 0.00 0.00 0.00 38 1012.3
20260905204005 101 147 1.0 7.0 0.00 0.00 0.00 38 1011.6
20260905203513 100 157 2.0 5.0 0.00 0.00 0.00 40 1012.5
20260905203503 100 186 4.0 7.0 0.00 0.00 0.00 40 1011.8
20260905203034 101 208 1.0 5.0 0.00 0.00 0.00 41 1012.7
20260905203011 101 175 3.0 8.0 0.00 0.00 0.00 41 1011.9
20260905202516 100 170 2.0 5.0 0.00 0.00 0.00 41 1012.5
20260905202505 100 160 4.0 8.0 0.00 0.00 0.00 41 1011.8
20260905202013 99 192 2.0 3.0 0.00 0.00 0.00 41 1012.7
20260905202008 99 159 5.0 8.0 0.00 0.00 0.00 41 1011.9
20260905201516 100 218 1.0 4.0 0.00 0.00 0.00 40 1012.8
20260905201506 100 193 2.0 8.0 0.00 0.00 0.00 40 1012.0
20260905201008 100 311 2.0 5.0 0.00 0.00 0.00 39 1012.8
20260905201005 100 253 3.0 8.0 0.00 0.00 0.00 39 1012.1
20260905200509 99 148 5.0 8.0 0.00 0.00 0.00 42 1012.0
20260905200037 97 44 1.0 3.0 0.00 0.00 0.00 43 1013.0
20260905200004 97 161 1.0 4.0 0.00 0.00 0.00 43 1012.1
20260905195515 97 65 1.0 4.0 0.00 0.00 0.00 46 1013.0
20260905195503 97 67 1.0 5.0 0.00 0.00 0.00 46 1012.3
20260905195016 95 194 0.0 4.0 0.00 0.00 0.00 47 1013.1
20260905195007 95 157 3.0 8.0 0.00 0.00 0.00 47 1012.3
20260905194525 98 135 1.0 3.0 0.00 0.00 0.00 41 1013.2
20260905194506 98 94 2.0 8.0 0.00 0.00 0.00 41 1012.4
20260905194014 99 198 1.0 6.0 0.00 0.00 0.00 42 1013.3
20260905194003 99 146 2.0 8.0 0.00 0.00 0.00 42 1012.5
20260905193516 98 250 2.0 6.0 0.00 0.00 0.00 42 1013.4
20260905193504 98 209 1.0 6.0 0.00 0.00 0.00 42 1012.7
20260905193021 97 184 1.0 5.0 0.00 0.00 0.00 44 1013.6
20260905193010 97 213 3.0 6.0 0.00 0.00 0.00 44 1012.7
20260905192514 97 190 1.0 3.0 0.00 0.00 0.00 45 1013.5
20260905192506 96 203 3.0 6.0 0.00 0.00 0.00 45 1012.8
20260905192017 96 237 0.0 3.0 0.00 0.00 0.00 42 1013.6
20260905192005 96 216 1.0 3.0 0.00 0.00 0.00 42 1012.8
20260905191540 97 161 1.0 4.0 0.00 0.00 0.00 43 1013.7
20260905191520 97 75 1.0 6.0 0.00 0.00 0.00 43 1013.0
20260905191014 97 197 1.0 4.0 0.00 0.00 0.00 45 1013.9
20260905191010 97 175 3.0 7.0 0.00 0.00 0.00 45 1013.1
20260905190507 97 205 2.0 8.0 0.00 0.00 0.00 43 1013.2
20260905190018 97 215 2.0 4.0 0.00 0.00 0.00 45 1014.0
20260905190016 97 167 3.0 8.0 0.00 0.00 0.00 45 1013.2
20260905185512 97 261 2.0 3.0 0.00 0.00 0.00 43 1014.0
20260905185013 97 203 1.0 3.0 0.00 0.00 0.00 44 1014.1
20260905185010 97 196 2.0 5.0 0.00 0.00 0.00 44 1013.3
20260905184533 96 243 1.0 4.0 0.00 0.00 0.00 48 1014.2
20260905184515 96 240 4.0 7.0 0.00 0.00 0.00 48 1013.4
20260905184008 96 66 2.0 7.0 0.00 0.00 0.00 45 1013.5
20260905184003 96 161 1.0 4.0 0.00 0.00 0.00 45 1014.4
20260905183507 97 192 2.0 10.0 0.00 0.00 0.00 45 1013.6
20260905183504 97 145 1.0 3.0 0.00 0.00 0.00 45 1014.4
20260905183007 96 14 1.0 5.0 0.00 0.00 0.00 48 1014.5
20260905182504 96 247 3.0 7.0 0.00 0.00 0.00 48 1013.8
20260905182006 95 252 1.0 4.0 0.00 0.00 0.00 50 1014.7
20260905181514 93 201 1.0 6.0 0.00 0.00 0.00 52 1014.0
20260905181506 93 9 1.0 3.0 0.00 0.00 0.00 52 1014.9
20260905181008 94 134 1.0 6.0 0.00 0.00 0.00 50 1014.2
20260905181003 94 313 1.0 4.0 0.00 0.00 0.00 50 1014.9
20260905180510 93 260 0.0 4.0 0.00 0.00 0.00 51 1014.9
20260905180506 93 308 3.0 6.0 0.00 0.00 0.00 51 1014.3
20260905180020 95 217 2.0 8.0 0.00 0.00 0.00 48 1014.4
20260905180017 95 173 1.0 6.0 0.00 0.00 0.00 48 1015.0
20260905175504 96 143 0.0 6.0 0.00 0.00 0.00 47 1015.2
20260905175007 95 140 2.0 7.0 0.00 0.00 0.00 47 1014.5
20260905175005 95 112 1.0 6.0 0.00 0.00 0.00 47 1015.3
20260905174526 95 251 1.0 4.0 0.00 0.00 0.00 49 1015.5
20260905174523 95 196 2.0 7.0 0.00 0.00 0.00 49 1014.6
20260905174014 95 208 3.0 7.0 0.00 0.00 0.00 53 1014.9
20260905174003 95 304 1.0 4.0 0.00 0.00 0.00 53 1015.6
20260905173506 93 173 2.0 4.0 0.00 0.00 0.00 53 1014.9
20260905173504 93 222 1.0 3.0 0.00 0.00 0.00 53 1015.6
20260905173020 94 300 1.0 6.0 0.00 0.00 0.00 55 1014.9
20260905173009 94 352 1.0 3.0 0.00 0.00 0.00 55 1015.6
20260905172505 92 225 2.0 7.0 0.00 0.00 0.00 55 1015.1
20260905172004 93 161 4.0 7.0 0.00 0.00 0.00 53 1015.2
20260905172002 93 144 1.0 4.0 0.00 0.00 0.00 53 1015.7
20260905171526 94 165 1.0 5.0 0.00 0.00 0.00 54 1015.8
20260905171511 94 268 1.0 7.0 0.00 0.00 0.00 54 1015.2
20260905171010 93 224 2.0 5.0 0.00 0.00 0.00 54 1016.0
20260905171005 93 180 3.0 7.0 0.00 0.00 0.00 54 1015.3
20260905170507 94 198 4.0 9.0 0.00 0.00 0.00 57 1015.3
20260905170503 94 175 2.0 5.0 0.00 0.00 0.00 57 1016.0
20260905170012 93 280 6.0 9.0 0.00 0.00 0.00 55 1015.2
20260905165509 93 226 1.0 2.0 0.00 0.00 0.00 56 1015.9
20260905165506 93 216 3.0 6.0 0.00 0.00 0.00 56 1015.2
20260905165009 91 275 1.0 5.0 0.00 0.00 0.00 54 1015.3
20260905164517 91 146 1.0 10.0 0.00 0.00 0.00 58 1015.3
20260905164510 91 163 0.0 5.0 0.00 0.00 0.00 58 1015.9
20260905164011 92 145 3.0 10.0 0.00 0.00 0.00 56 1015.4
20260905164005 92 206 1.0 6.0 0.00 0.00 0.00 56 1015.9
20260905163513 91 240 3.0 6.0 0.00 0.00 0.00 59 1016.0
20260905163510 91 211 5.0 9.0 0.00 0.00 0.00 59 1015.4
20260905163029 90 186 2.0 11.0 0.00 0.00 0.00 60 1015.4
20260905163004 90 260 0.0 4.0 0.00 0.00 0.00 60 1016.0
20260905162506 92 146 1.0 7.0 0.00 0.00 0.00 57 1016.2
20260905162010 92 119 5.0 10.0 0.00 0.00 0.00 59 1015.3
20260905162004 92 210 1.0 7.0 0.00 0.00 0.00 59 1016.2
20260905161531 90 202 5.0 9.0 0.00 0.00 0.00 60 1015.3
20260905161511 90 244 3.0 7.0 0.00 0.00 0.00 60 1016.1
20260905161010 90 208 3.0 9.0 0.00 0.00 0.00 61 1015.4
20260905161007 90 194 1.0 3.0 0.00 0.00 0.00 61 1016.2
20260905160507 90 249 0.0 4.0 0.00 0.00 0.00 61 1016.0
20260905160503 90 229 3.0 12.0 0.00 0.00 0.00 61 1015.5
20260905160025 91 235 2.0 4.0 0.00 0.00 0.00 61 1016.1
20260905155509 90 225 4.0 7.0 0.00 0.00 0.00 66 1015.5
20260905155503 90 214 1.0 3.0 0.00 0.00 0.00 66 1016.1
20260905155006 89 225 1.0 3.0 0.00 0.00 0.00 66 1016.1
20260905154542 88 152 1.0 4.0 0.00 0.00 0.00 69 1016.1
20260905154518 88 166 2.0 8.0 0.00 0.00 0.00 69 1015.5
20260905154010 88 237 2.0 4.0 0.00 0.00 0.00 67 1016.1
20260905153512 86 246 3.0 7.0 0.00 0.00 0.00 72 1015.5
20260905153505 86 252 0.0 3.0 0.00 0.00 0.00 72 1016.2
20260905153016 86 203 3.0 6.0 0.00 0.00 0.00 71 1015.5
20260905152512 86 185 3.0 6.0 0.00 0.00 0.00 71 1015.4
20260905152018 86 240 3.0 9.0 0.00 0.00 0.00 72 1015.4
20260905152004 86 232 1.0 3.0 0.00 0.00 0.00 72 1016.3
20260905151512 86 209 3.0 10.0 0.00 0.00 0.00 73 1015.3
20260905151010 87 215 5.0 10.0 0.00 0.00 0.00 71 1015.4
20260905151003 87 249 0.0 5.0 0.00 0.00 0.00 71 1016.2
20260905150515 87 234 4.0 7.0 0.00 0.00 0.00 74 1015.4
20260905150503 87 286 2.0 5.0 0.00 0.00 0.00 74 1016.1
20260905150010 85 186 2.0 5.0 0.00 0.00 0.00 78 1015.4
20260905145507 85 196 1.0 4.0 0.00 0.00 0.00 77 1016.1
20260905145505 85 196 3.0 6.0 0.00 0.00 0.00 77 1015.4
20260905145012 83 192 3.0 6.0 0.00 0.00 0.00 83 1015.4
20260905145007 83 179 0.0 3.0 0.00 0.00 0.00 83 1016.1
20260905144532 83 204 3.0 6.0 0.00 0.00 0.00 82 1015.4
20260905144504 83 219 0.0 3.0 0.00 0.00 0.00 82 1016.1
20260905144005 83 188 0.0 2.0 0.00 0.00 0.00 82 1016.0
20260905143510 83 162 2.0 7.0 0.00 0.00 0.00 85 1015.3
20260905143508 83 174 0.0 2.0 0.00 0.00 0.00 85 1016.0
20260905143026 82 180 2.0 6.0 0.00 0.00 0.00 87 1015.3
20260905143024 82 205 0.0 3.0 0.00 0.00 0.00 87 1016.0
20260905142512 81 161 1.0 4.0 0.00 0.00 0.00 88 1015.2
20260905142504 81 273 0.0 3.0 0.00 0.00 0.00 88 1016.0
20260905142008 80 251 1.0 2.0 0.00 0.00 0.00 89 1016.0
20260905141528 80 193 1.0 4.0 0.00 0.00 0.00 90 1015.2
20260905141526 80 183 0.0 2.0 0.00 0.00 0.00 90 1015.9
20260905141018 80 143 2.0 4.0 0.00 0.00 0.00 90 1015.2
20260905141006 80 188 0.0 2.0 0.00 0.00 0.00 90 1016.0
20260905140504 79 194 1.0 5.0 0.00 0.00 0.00 91 1015.2
20260905140023 79 179 2.0 5.0 0.00 0.00 0.00 92 1015.1
20260905140008 79 303 0.0 2.0 0.00 0.00 0.00 92 1015.9
20260905135515 78 110 0.0 2.0 0.00 0.00 0.00 93 1015.1
20260905135504 78 225 1.0 2.0 0.00 0.00 0.00 93 1015.9
20260905135012 78 112 0.0 3.0 0.00 0.00 0.00 93 1015.1
20260905135005 78 115 0.0 2.0 0.00 0.00 0.00 93 1015.8
20260905134516 77 136 0.0 3.0 0.00 0.00 0.00 94 1015.0
20260905134514 77 87 0.0 2.0 0.00 0.00 0.00 94 1015.8
20260905134010 77 87 0.0 2.0 0.00 0.00 0.00 94 1015.8
20260905134008 77 147 0.0 2.0 0.00 0.00 0.00 94 1015.0
20260905133508 76 147 0.0 2.0 0.00 0.00 0.00 94 1015.0
20260905133502 76 123 0.0 2.0 0.00 0.00 0.00 94 1015.9
20260905133014 76 91 0.0 2.0 0.00 0.00 0.00 94 1015.8
20260905132512 76 126 0.0 2.0 0.00 0.00 0.00 94 1015.9
20260905132508 76 112 0.0 2.0 0.00 0.00 0.00 94 1015.1
20260905132018 75 198 0.0 0.0 0.00 0.00 0.00 94 1015.9
20260905132013 75 111 0.0 0.0 0.00 0.00 0.00 94 1015.0
20260905131528 74 111 0.0 0.0 0.00 0.00 0.00 94 1015.0
20260905131509 74 198 0.0 0.0 0.00 0.00 0.00 94 1015.8
20260905131011 74 200 0.0 0.0 0.00 0.00 0.00 94 1014.9
20260905131008 74 198 0.0 0.0 0.00 0.00 0.00 94 1015.7
20260905130515 74 198 0.0 0.0 0.00 0.00 0.00 94 1015.7
20260905130032 73 200 0.0 0.0 0.00 0.00 0.00 94 1014.9
20260905130004 73 198 0.0 0.0 0.00 0.00 0.00 94 1015.6
20260905125515 73 200 0.0 0.0 0.00 0.00 0.00 94 1014.7
20260905125509 73 198 0.0 0.0 0.00 0.00 0.00 94 1015.6
20260905125013 73 200 0.0 0.0 0.00 0.00 0.00 94 1014.7
20260905125006 73 198 0.0 0.0 0.00 0.00 0.00 94 1015.5
20260905124530 73 200 0.0 0.0 0.00 0.00 0.00 94 1014.7
20260905124517 73 198 0.0 0.0 0.00 0.00 0.00 94 1015.5
20260905124017 73 200 0.0 0.0 0.00 0.00 0.00 94 1014.5
20260905124006 73 198 0.0 0.0 0.00 0.00 0.00 94 1015.4
20260905123508 73 200 0.0 0.0 0.00 0.00 0.00 94 1014.5
20260905123506 73 198 0.0 0.0 0.00 0.00 0.00 94 1015.3
20260905123021 73 200 0.0 0.0 0.00 0.00 0.00 94 1014.4
20260905123017 73 198 0.0 0.0 0.00 0.00 0.00 94 1015.2
20260905122513 73 200 0.0 0.0 0.00 0.00 0.00 94 1014.3
20260905122506 73 198 0.0 0.0 0.00 0.00 0.00 94 1015.1
20260905122014 73 200 0.0 0.0 0.00 0.00 0.00 94 1014.3
20260905122007 73 198 0.0 0.0 0.00 0.00 0.00 94 1015.1
20260905121523 73 200 0.0 0.0 0.00 0.00 0.00 94 1014.2
20260905121519 73 198 0.0 0.0 0.00 0.00 0.00 94 1015.1
20260905121015 73 200 0.0 0.0 0.00 0.00 0.00 93 1014.2
20260905121012 73 198 0.0 0.0 0.00 0.00 0.00 93 1015.0
20260905120514 73 200 0.0 0.0 0.00 0.00 0.00 94 1014.2
20260905120505 73 198 0.0 0.0 0.00 0.00 0.00 94 1015.0
20260905120025 73 200 0.0 0.0 0.00 0.00 0.00 94 1014.2
20260905120020 73 198 0.0 0.0 0.00 0.00 0.00 94 1015.0
20260905115516 73 198 0.0 0.0 0.00 0.00 0.00 93 1015.0
20260905115017 73 200 0.0 0.0 0.00 0.00 0.00 93 1014.2
20260905115004 73 198 0.0 0.0 0.00 0.00 0.00 93 1015.0
20260905114532 73 200 0.0 0.0 0.00 0.01 0.00 93 1014.1
20260905114512 73 198 0.0 0.0 0.00 0.01 0.00 93 1014.9
20260905114011 73 200 0.0 0.0 0.00 0.01 0.00 93 1014.1
20260905114007 73 198 0.0 0.0 0.00 0.01 0.00 93 1014.9
20260905113516 73 200 0.0 0.0 0.00 0.01 0.00 93 1014.2
20260905113508 73 198 0.0 0.0 0.00 0.01 0.00 93 1014.9
20260905113033 73 200 0.0 0.0 0.00 0.01 0.00 93 1014.1
20260905113010 73 198 0.0 0.0 0.00 0.01 0.00 93 1014.9
20260905112510 73 198 0.0 0.0 0.00 0.01 0.00 93 1014.9
20260905112008 73 198 0.0 0.0 0.00 0.01 0.00 93 1014.7
20260905112005 73 200 0.0 0.0 0.00 0.01 0.00 93 1014.0
20260905111526 73 198 0.0 0.0 0.00 0.01 0.00 93 1014.7
20260905111508 73 200 0.0 0.0 0.00 0.01 0.00 93 1014.0
20260905111008 73 198 0.0 0.0 0.00 0.01 0.00 93 1014.7
20260905111006 73 200 0.0 0.0 0.00 0.01 0.00 93 1014.0
20260905110515 73 198 0.0 0.0 0.00 0.01 0.00 93 1014.6
20260905110503 73 200 0.0 0.0 0.00 0.01 0.00 93 1013.9
20260905110030 73 198 0.0 0.0 0.00 0.01 0.00 93 1014.6
20260905110005 73 200 0.0 0.0 0.00 0.01 0.00 93 1013.8
20260905105508 73 200 0.0 0.0 0.00 0.01 0.00 93 1013.9
20260905105505 73 198 0.0 0.0 0.00 0.01 0.00 93 1014.6
20260905105010 73 198 0.0 0.0 0.00 0.01 0.00 93 1014.7
20260905105004 73 200 0.0 0.0 0.00 0.01 0.00 93 1013.9
20260905104541 73 198 0.0 0.0 0.00 0.01 0.00 93 1014.7
20260905104504 73 200 0.0 0.0 0.00 0.01 0.00 93 1014.0
20260905104005 73 200 0.0 0.0 0.00 0.01 0.00 93 1013.9
20260905103506 73 198 0.0 0.0 0.00 0.01 0.00 93 1014.5
20260905103504 73 200 0.0 0.0 0.00 0.01 0.00 93 1013.8
20260905103012 73 200 0.0 0.0 0.00 0.01 0.00 93 1013.8
20260905102507 73 198 0.0 0.0 0.00 0.01 0.00 93 1014.4
20260905102503 73 200 0.0 0.0 0.00 0.01 0.00 93 1013.8
20260905102005 73 200 0.0 0.0 0.00 0.01 0.00 93 1013.7
20260905101523 73 198 0.0 0.0 0.00 0.01 0.00 93 1014.4
20260905101521 73 200 0.0 0.0 0.00 0.01 0.00 93 1013.8
20260905101011 73 198 0.0 0.0 0.00 0.01 0.00 93 1014.4
20260905101002 73 200 0.0 0.0 0.00 0.01 0.00 93 1013.7
20260905100513 73 198 0.0 0.0 0.00 0.01 0.00 93 1014.4
20260905100504 73 200 0.0 0.0 0.00 0.01 0.00 93 1013.7
20260905100017 73 198 0.0 0.0 0.00 0.01 0.00 93 1014.4
20260905100002 73 200 0.0 0.0 0.00 0.01 0.00 93 1013.7
20260905095510 74 198 0.0 0.0 0.00 0.01 0.00 93 1014.4
20260905095506 74 200 0.0 0.0 0.00 0.01 0.00 93 1013.7
20260905095015 74 198 0.0 0.0 0.00 0.01 0.00 92 1014.4
20260905095004 74 200 0.0 0.0 0.00 0.01 0.00 92 1013.7
20260905094512 74 198 0.0 0.0 0.00 0.01 0.00 92 1014.4
20260905094505 74 200 0.0 0.0 0.00 0.01 0.00 92 1013.7
20260905094009 74 198 0.0 0.0 0.00 0.01 0.00 92 1014.4
20260905094003 74 200 0.0 0.0 0.00 0.01 0.00 92 1013.7
20260905093514 74 198 0.0 0.0 0.00 0.01 0.00 92 1014.4
20260905093503 74 200 0.0 0.0 0.00 0.01 0.00 92 1013.7
20260905093012 73 198 0.0 0.0 0.00 0.01 0.00 92 1014.5
20260905093008 73 200 0.0 0.0 0.00 0.01 0.00 92 1013.8
20260905092511 74 198 0.0 0.0 0.00 0.01 0.00 92 1014.4
20260905092504 74 200 0.0 0.0 0.00 0.01 0.00 92 1013.8
20260905092011 74 198 0.0 0.0 0.00 0.01 0.00 92 1014.5
20260905092007 74 200 0.0 0.0 0.00 0.01 0.00 92 1013.8
20260905091515 74 198 0.0 0.0 0.00 0.01 0.00 92 1014.6
20260905091509 74 200 0.0 0.0 0.00 0.01 0.00 92 1013.9
20260905091007 74 200 0.0 0.0 0.00 0.01 0.00 92 1013.9
20260905091003 74 198 0.0 0.0 0.00 0.01 0.00 92 1014.7
20260905090510 74 200 0.0 0.0 0.00 0.01 0.00 92 1014.0
20260905090508 74 198 0.0 0.0 0.00 0.01 0.00 92 1014.7
20260905090024 74 198 0.0 0.0 0.00 0.01 0.00 92 1014.7
20260905090005 74 200 0.0 0.0 0.00 0.01 0.00 92 1014.0
20260905085512 74 198 0.0 0.0 0.00 0.01 0.00 92 1014.7
20260905085503 74 200 0.0 0.0 0.00 0.01 0.00 92 1014.0
20260905085008 74 198 0.0 0.0 0.00 0.01 0.00 91 1014.7
20260905084535 74 198 0.0 0.0 0.00 0.01 0.00 91 1014.7
20260905084504 74 200 0.0 0.0 0.00 0.01 0.00 91 1014.0
20260905084016 74 198 0.0 0.0 0.00 0.01 0.00 91 1014.7
20260905084003 74 200 0.0 0.0 0.00 0.01 0.00 91 1013.9
20260905083506 75 198 0.0 0.0 0.00 0.01 0.00 91 1014.6
20260905083504 75 200 0.0 0.0 0.00 0.01 0.00 91 1013.9
20260905083023 75 198 0.0 0.0 0.00 0.01 0.00 91 1014.6
20260905083010 75 200 0.0 0.0 0.00 0.01 0.00 91 1013.8
20260905082514 75 198 0.0 0.0 0.00 0.01 0.00 91 1014.5
20260905082507 75 200 0.0 0.0 0.00 0.01 0.00 91 1013.7
20260905082006 75 198 0.0 0.0 0.00 0.01 0.00 90 1014.5
20260905082003 75 200 0.0 0.0 0.00 0.01 0.00 90 1013.8
20260905081516 75 200 0.0 0.0 0.00 0.01 0.00 90 1013.7
20260905081013 75 198 0.0 2.0 0.00 0.01 0.00 90 1014.4
20260905081009 75 200 0.0 2.0 0.00 0.01 0.00 90 1013.7
20260905080506 75 198 0.0 2.0 0.00 0.01 0.00 90 1014.4
20260905080503 75 200 0.0 1.0 0.00 0.01 0.00 90 1013.7
20260905080025 76 198 0.0 1.0 0.00 0.01 0.00 90 1014.5
20260905080018 76 200 0.0 1.0 0.00 0.01 0.00 90 1013.8
20260905075511 76 194 0.0 2.0 0.00 0.01 0.00 90 1014.6
20260905075508 76 200 0.0 2.0 0.00 0.01 0.00 90 1013.8
20260905075012 76 200 0.0 2.0 0.00 0.01 0.00 90 1013.9
20260905075009 76 194 0.0 2.0 0.00 0.01 0.00 90 1014.6
20260905074528 76 194 0.0 2.0 0.00 0.01 0.00 89 1014.7
20260905074510 76 200 0.0 2.0 0.00 0.01 0.00 89 1014.0
20260905074009 76 194 0.0 2.0 0.00 0.01 0.00 89 1014.7
20260905074007 76 200 0.0 2.0 0.00 0.01 0.00 89 1014.0
20260905073514 76 194 0.0 2.0 0.00 0.01 0.00 88 1014.7
20260905073503 76 204 0.0 2.0 0.00 0.01 0.00 88 1014.1
20260905073040 76 194 0.0 2.0 0.00 0.01 0.00 89 1014.7
20260905073007 76 221 1.0 2.0 0.00 0.01 0.00 89 1014.1
20260905072507 76 194 0.0 2.0 0.00 0.01 0.00 88 1014.8
20260905072504 76 219 0.0 2.0 0.00 0.01 0.00 88 1014.1
20260905072011 76 194 0.0 2.0 0.00 0.01 0.00 88 1014.9
20260905072005 76 219 0.0 3.0 0.00 0.01 0.00 88 1014.2
20260905071531 76 194 0.0 2.0 0.00 0.01 0.00 88 1014.9
20260905071514 76 175 0.0 3.0 0.00 0.01 0.00 88 1014.2
20260905071006 76 194 0.0 2.0 0.00 0.01 0.00 88 1014.9
20260905071003 76 171 1.0 2.0 0.00 0.01 0.00 88 1014.2
20260905070511 77 207 0.0 2.0 0.00 0.01 0.00 88 1014.9
20260905070508 77 161 0.0 0.0 0.00 0.01 0.00 88 1014.2
20260905070024 77 161 0.0 1.0 0.00 0.01 0.00 88 1014.2
20260905070019 77 194 0.0 0.0 0.00 0.01 0.00 88 1015.0
20260905065509 77 194 0.0 0.0 0.00 0.01 0.00 87 1015.0
20260905065503 77 161 0.0 2.0 0.00 0.01 0.00 87 1014.3
20260905065005 77 194 0.0 0.0 0.00 0.01 0.00 87 1015.1
20260905064525 77 194 0.0 2.0 0.00 0.01 0.00 86 1015.1
20260905064014 77 161 1.0 2.0 0.00 0.01 0.00 86 1014.4
20260905063512 78 192 0.0 2.0 0.00 0.01 0.00 86 1015.1
20260905063507 78 161 0.0 2.0 0.00 0.01 0.00 86 1014.3
20260905063020 78 192 0.0 2.0 0.00 0.01 0.00 86 1015.1
20260905063018 78 161 0.0 2.0 0.00 0.01 0.00 86 1014.4
20260905062509 78 193 0.0 2.0 0.00 0.01 0.00 85 1015.2
20260905062503 78 161 0.0 2.0 0.00 0.01 0.00 85 1014.4
20260905062007 78 173 0.0 2.0 0.00 0.01 0.00 85 1015.2
20260905062004 78 161 0.0 4.0 0.00 0.01 0.00 85 1014.4
20260905061515 78 173 0.0 2.0 0.00 0.01 0.00 85 1015.2
20260905061510 78 176 1.0 5.0 0.00 0.01 0.00 85 1014.4
20260905061007 78 204 0.0 2.0 0.00 0.01 0.00 84 1015.2
20260905060507 78 188 1.0 4.0 0.00 0.01 0.00 84 1014.4
20260905060013 78 198 0.0 2.0 0.00 0.01 0.00 84 1015.1
20260905060011 78 148 1.0 3.0 0.00 0.01 0.00 84 1014.4
20260905055507 79 156 1.0 3.0 0.00 0.01 0.00 84 1014.3
20260905055011 79 168 1.0 3.0 0.00 0.01 0.00 83 1014.4
20260905055008 79 182 0.0 3.0 0.00 0.01 0.00 83 1015.2
20260905054511 79 165 1.0 6.0 0.00 0.01 0.00 83 1014.5
20260905054508 79 187 0.0 2.0 0.00 0.01 0.00 83 1015.2
20260905054008 79 171 0.0 2.0 0.00 0.01 0.00 83 1015.3
20260905054006 79 149 2.0 5.0 0.00 0.01 0.00 83 1014.5
20260905053512 79 146 1.0 5.0 0.00 0.01 0.00 83 1014.5
20260905053030 79 159 2.0 6.0 0.00 0.01 0.00 82 1014.5
20260905053027 79 189 0.0 2.0 0.00 0.01 0.00 82 1015.2
20260905052506 79 176 0.0 2.0 0.00 0.01 0.00 82 1015.2
20260905052503 79 179 1.0 6.0 0.00 0.01 0.00 82 1014.5
20260905052011 79 142 1.0 7.0 0.00 0.01 0.00 82 1014.5
20260905052003 79 180 0.0 3.0 0.00 0.01 0.00 82 1015.3
20260905051508 79 193 1.0 3.0 0.00 0.01 0.00 82 1015.3
20260905051506 79 165 2.0 7.0 0.00 0.01 0.00 82 1014.5
20260905051007 79 186 0.0 3.0 0.00 0.01 0.00 81 1015.3
20260905051004 79 134 1.0 4.0 0.00 0.01 0.00 81 1014.5
20260905050506 79 71 0.0 3.0 0.00 0.01 0.00 81 1015.2
20260905050504 79 132 1.0 6.0 0.00 0.01 0.00 81 1014.4
20260905050015 79 215 0.0 4.0 0.00 0.01 0.00 82 1015.2
20260905045510 79 165 1.0 4.0 0.00 0.01 0.01 82 1015.2
20260905045508 79 147 1.0 6.0 0.00 0.01 0.01 82 1014.4
20260905045006 78 180 1.0 6.0 0.00 0.01 0.01 83 1014.4
20260905044524 78 180 0.0 2.0 0.00 0.01 0.01 83 1015.1
20260905044520 78 157 1.0 3.0 0.00 0.01 0.01 83 1014.5
20260905044011 78 152 1.0 3.0 0.00 0.01 0.01 84 1014.5
20260905044009 78 169 0.0 2.0 0.00 0.01 0.01 84 1015.2
20260905043511 77 161 0.0 3.0 0.00 0.01 0.01 85 1014.5
20260905043503 77 167 0.0 2.0 0.00 0.01 0.01 85 1015.2
20260905043016 77 153 0.0 1.0 0.00 0.01 0.01 85 1015.2
20260905042516 77 153 0.0 1.0 0.00 0.01 0.01 85 1015.3
20260905042511 77 65 0.0 1.0 0.00 0.01 0.01 85 1014.5
20260905042016 77 75 0.0 0.0 0.00 0.01 0.01 85 1014.4
20260905042012 77 153 0.0 0.0 0.00 0.01 0.01 85 1015.3
20260905041515 77 153 0.0 0.0 0.00 0.01 0.01 85 1015.2
20260905041510 77 75 0.0 0.0 0.00 0.01 0.01 85 1014.4
20260905041009 77 75 0.0 0.0 0.00 0.01 0.01 84 1014.4
20260905041006 77 153 0.0 0.0 0.00 0.01 0.01 84 1015.3
20260905040514 77 75 0.0 0.0 0.00 0.01 0.01 84 1014.5
20260905040505 77 153 0.0 0.0 0.00 0.01 0.01 84 1015.3
20260905040016 78 153 0.0 2.0 0.00 0.01 0.01 84 1015.2
20260905040012 78 75 0.0 0.0 0.00 0.01 0.01 84 1014.4
20260905035508 78 153 0.0 2.0 0.00 0.01 0.01 83 1015.2
20260905035506 78 75 0.0 2.0 0.00 0.01 0.01 83 1014.4
20260905035009 78 165 0.0 2.0 0.00 0.01 0.01 83 1015.2
20260905034525 78 163 0.0 0.0 0.00 0.01 0.01 83 1015.2
20260905034519 78 75 0.0 0.0 0.00 0.01 0.01 83 1014.4
20260905034006 78 75 0.0 0.0 0.00 0.01 0.01 83 1014.3
20260905034004 78 163 0.0 0.0 0.00 0.01 0.01 83 1015.1
20260905033507 78 75 0.0 0.0 0.00 0.01 0.01 82 1014.4
20260905033027 78 75 0.0 1.0 0.00 0.01 0.01 81 1014.3
20260905033024 78 163 0.0 1.0 0.00 0.01 0.01 81 1015.0
20260905032513 79 75 0.0 1.0 0.00 0.01 0.01 81 1014.3
20260905032503 79 163 0.0 1.0 0.00 0.01 0.01 81 1015.0